Regional Weather Roundup
Issued by NWS

Home | Current Version | Previous Version | Text Only | Print | Product List | Glossary Off
Versions: 1 2 3 4 5 6 7 8 9 10 11 12 13 14 15 16 17 18 19 20 21 22 23 24 25 26 27 28 29 30 31 32 33 34 35 36 37 38 39 40 41 42 43 44 45 46 47 48 49 50

000
ASUS43 KLSX 011707
RWRMO

WEATHER SUMMARY FOR MISSOURI
NATIONAL WEATHER SERVICE SPRINGFIELD MO
1200 PM CDT FRI AUG 01 2014

NOTE: "FAIR" INDICATES FEW OR NO CLOUDS BELOW 12,000 FEET WITH NO
       SIGNIFICANT WEATHER AND/OR OBSTRUCTIONS TO VISIBILITY.
       CURRENT SKY AND/OR WEATHER CONDITIONS ARE NOT AVAILABLE FOR
       CHILLICOTHE AND FARMINGTON.

MOZ001>031-035>038-043-044-053-054-011800-
...NORTHERN AND WESTERN MISSOURI...

CITY           SKY/WX    TMP DP  RH WIND       PRES   REMARKS
KANSAS CTY INT MOSUNNY   79  61  53 S8        30.09S
KANSAS C DTWN  SUNNY     80  61  52 SE6       30.08S
LEE`S SUMMIT   PTSUNNY   77  61  57 E8        30.10S
ST JOSEPH      PTSUNNY   79  61  53 SE9       30.08S
CHILLICOTHE      N/A     72  64  76 CALM      30.12S
KIRKSVILLE     PTSUNNY   79  61  53 W3        30.11F

$$
MOZ066>068-077>081-088>096-101>105-011800-
...SOUTHWEST MISSOURI...

CITY           SKY/WX    TMP DP  RH WIND       PRES   REMARKS
SPRINGFIELD    CLOUDY    72  65  78 CALM      30.12F
JOPLIN         CLOUDY    76  65  68 S6        30.12S

$$
MOZ032>034-039>042-045>050-055>058-069>072-011800-
...CENTRAL MISSOURI...

CITY           SKY/WX    TMP DP  RH WIND       PRES   REMARKS
COLUMBIA       PTSUNNY   76  61  59 N7        30.11S
JEFFERSON CITY CLOUDY    79  64  60 NW7       30.09S
ROLLA          SUNNY     81  60  48 CALM      30.09F
SEDALIA        CLOUDY    72  63  73 NE5       30.11S
WHITEMAN AFB   PTSUNNY   71  53  52 E6        30.10S
OSAGE BEACH      N/A     84  64  51 S8        30.09S

$$
MOZ051-052-059>065-011800-
...EAST CENTRAL MISSOURI...

CITY           SKY/WX    TMP DP  RH WIND       PRES   REMARKS
ST LOUIS INTL  MOSUNNY   84  59  42 CALM      30.09F
SPIRIT OF STL  MOSUNNY   83  63  50 W3        30.07F
ST CHARLES     MOSUNNY   82  59  45 S5        30.07F

$$
MOZ072>076-082>087-097>100-106>115-011800-
...SOUTH CENTRAL AND SOUTHEAST MISSOURI...

CITY           SKY/WX    TMP DP  RH WIND       PRES   REMARKS
CAPE GIRARDEAU CLOUDY    80  63  55 SW3       30.09S
FARMINGTON     SUNNY     79  64  61 CALM      30.13F
POPLAR BLUFF   MOSUNNY   79  63  57 S6        30.09S
WEST PLAINS    CLOUDY    73  63  70 VRB3      30.13S

$$



USA.gov is the U.S. government's official web portal to all federal, state and local government web resources and services.